Regional Weather Roundup
Issued by NWS

Home | Current Version | Previous Version | Text Only | Print | Product List | Glossary On
Versions: 1 2 3 4 5 6 7 8 9 10 11 12 13 14 15 16 17 18 19 20 21 22 23 24 25 26 27 28 29 30 31 32 33 34 35 36 37 38 39 40 41 42 43 44 45 46 47 48 49 50
000
ASUS46 KSEW 200710
RWRWA

WASHINGTON REGIONAL WEATHER ROUNDUP
NATIONAL WEATHER SERVICE SEATTLE WA
1200 AM PDT WED SEP 20 2017

NOTE:"FAIR" INDICATES FEW OR NO CLOUDS BELOW 12,000 FEET WITH NO
SIGNIFICANT WEATHER AND/OR OBSTRUCTIONS TO VISIBILITY.

WAZ507-509-555>559-200800-
SEATTLE, TACOMA, EVERETT, AND VICINITY

CITY           SKY/WX    TMP DP  RH WIND       PRES   REMARKS
EVERETT        CLOUDY    50  49  96 VRB6      29.73F
BOEING FIELD   MOCLDY    51  51 100 E5        29.71F
RENTON         MOCLDY    53  52  96 CALM      29.71F
SEATAC AIRPORT MOCLDY    53  47  79 SE3       29.71F
JBLM-MCCHORD   MOCLDY    47  47 100 CALM      29.70F
PUYALLUP       CLOUDY    50  48  93 CALM      29.71F
BREMERTON      CLEAR     43  42  97 CALM      29.71F FOG
JBLM-FT LEWIS  PTCLDY    48  47  99 CALM      29.70F
TACOMA NARROWS CLEAR     51  48  89 SE5       29.70F
$$

WAZ001-503-506-510-514-515-200800-
NORTH INTERIOR

CITY           SKY/WX    TMP DP  RH WIND       PRES   REMARKS
BELLINGHAM     CLOUDY    51  49  92 S3        29.70S
FRIDAY HARBOR  CLOUDY    51  50  96 S7        29.71S
EASTSOUND      CLOUDY    50  50 100 S5        29.70S
PORT ANGELES   CLOUDY    46  45  96 SE3       29.70F
EDIZ HOOK      CLOUDY    49  47  92 S3        29.70S
PORT TOWNSEND  MOCLDY    50  48  93 E3        29.71F
NAS WHIDBEY    CLOUDY    55  47  74 S9        29.74F
ARLINGTON      LGT RAIN  49  47  93 S6        29.73F
BURLINGTON     CLOUDY    52  50  93 SE9       29.71F
$$

WAZ020-022-039-040-504-511-512-200800-
SOUTHWEST INTERIOR

CITY           SKY/WX    TMP DP  RH WIND       PRES   REMARKS
SHELTON        PTCLDY    47  46  97 CALM      29.68F
OLYMPIA        PTCLDY    47  47 100 S3        29.70F
CHEHALIS       CLOUDY    52  50  93 S5        29.71F
KELSO          RAIN      52  51  97 W3        29.73F
VANCOUVER      RAIN      55  54  96 SE3       29.72F FOG
SCAPPOOSE, OR  LGT RAIN  53  52  96 SE3       29.72F
PORTLAND, OR   LGT RAIN  54  53  97 SE8       29.73F
$$

WAZ021-516-517-200800-
WASHINGTON COAST

CITY           SKY/WX    TMP DP  RH WIND       PRES   REMARKS
FORKS          CLOUDY    48  47  96 NE6       29.67F
HOQUIAM        CLOUDY    52  50  93 NE7       29.69F
ASTORIA, OR    RAIN      50  49  96 S7        29.70F
$$

WAZ019-023-024-040-567>569-200800-
CASCADE MOUNTAINS AND COLUMBIA GORGE

CITY           SKY/WX    TMP DP  RH WIND       PRES   REMARKS
STAMPEDE PASS  NOT AVBL
TROUTDALE, OR  RAIN      54  52  93 NE3       29.73F FOG
HOOD RIVER, OR LGT RAIN  48  45  87 S7        29.76F
THE DALLES, OR LGT RAIN  51  50  96 CALM      29.76F
$$

WAZ026-027-041>044-520-521-200800-
EAST SLOPES

CITY           SKY/WX    TMP DP  RH WIND       PRES   REMARKS
OMAK           CLOUDY    45  40  82 NW8       29.65F
WENATCHEE      MOCLDY    49  38  65 NW15      29.66F
ELLENSBURG     PTCLDY    46  39  76 NW10      29.69F
YAKIMA         MOCLDY    49  37  63 E3        29.71S
SUNNYSIDE ARPT CLOUDY    45  41  88 NE5       29.71F
YAKIMA TC      FAIR      41  34  74 E3        29.69S
$$

WAZ028-034-035-200800-
COLUMBIA BASIN

CITY           SKY/WX    TMP DP  RH WIND       PRES   REMARKS
EPHRATA        CLOUDY    49  32  52 W10       29.65S
MOSES LAKE     MOCLDY    50  38  63 SW9       29.67S
PASCO          CLOUDY    57  41  55 SW18      29.72F
RICHLAND ARPT  CLOUDY    56  42  57 SW14G23   29.71S
HERMISTON, OR  LGT RAIN  52  47  83 S8        29.75S
$$

WAZ036>038-200800-
NORTHEAST WASHINGTON

CITY           SKY/WX    TMP DP  RH WIND       PRES   REMARKS
SPOKANE GEIGER CLOUDY    45  43  93 S9        29.67F
SPOKANE FELTS  MOCLDY    45  44  97 N3        29.69F
FAIRCHILD AFB  MOCLDY    43  43 100 S10       29.66F
COEURDALENE,ID RAIN      43  41  93 SE8       29.70F
DEER PARK      FOG       38  38 100 NE3       29.68F VSB 1/2
$$

WAZ029>033-200800-
SOUTHEAST WASHINGTON

CITY           SKY/WX    TMP DP  RH WIND       PRES   REMARKS
PULLMAN        CLOUDY    48  39  71 SW20G25   29.74F
LEWISTON, ID   MOCLDY    54  41  61 S7        29.73F
WALLA WALLA    LGT RAIN  52  45  77 S5        29.75F
PENDLETON, OR  LGT RAIN  49  43  80 W10       29.76S
$$



USA.gov is the U.S. government's official web portal to all federal, state and local government web resources and services.